Location: Aressy
(43.2833°N, 0.3167°W)
Time: 00:11:50
(UTC+00:00)

ISS - Pass Details

Date: 28 January 2021
Orbit: 417 x 422 km, 51.6° (Epoch: 08 March)

Event Time Altitude Azimuth Distance (km) Brightness Sun altitude
Rises 17:46:49 0° 287° (WNW) 2,371 1.1 -7.4°
Reaches altitude 10° 17:49:18 10° 305° (NW) 1,508 -0.4 -7.8°
Maximum altitude 17:51:54 20° 355° (N) 1,044 -1.9 -8.3°
Drops below altitude 10° 17:54:29 10° 44° (NE) 1,511 -1.5 -8.7°
Enters shadow 17:54:36 - 46° (NE) 1,547 -1.4 -8.8°
